Gaschem Phoenix — ELUO6 — position and weather

sailwx.info

Track history (hours):
 
Tides and Currents Weather Stations Pressure Air Temp Water Temp Dewpoint Dewpoint Depression Visibility Wind Speed Wind Dir Waves Ship Positions

Gaschem Phoenix

Last reported at 2016-Jul-24 05:29 UTC. Time now 2016-Jul-26 06:30 UTC.
Position N 32°05' E 119°56'.

Length 100 m; draft 5.9 m.

Type: Ship. MMSI: 636090235.

Date/timePositionNaut miles runAvg speedWind from/ knotsBaromVisibWave heightAir tempDewpointWater temp
2016-Jul-24 05:29N 32°05' E 119°56'7 7.1
2016-Jul-24 04:33N 31°59' E 119°60'8 7.0
2016-Jul-24 03:26N 31°56' E 120°08'6 6.7
2016-Jul-24 02:33N 31°56' E 120°15'7 7.3
2016-Jul-24 01:32N 32°00' E 120°22'8 8.3
2016-Jul-24 00:33N 32°04' E 120°31'9 8.6
2016-Jul-23 23:33N 31°60' E 120°40'12 8.5
2016-Jul-23 22:09N 31°55' E 120°53'811.2
2016-Jul-23 21:28N 31°48' E 120°55'1111.6
2016-Jul-23 20:34N 31°44' E 121°07'1313.0
2016-Jul-23 19:33N 31°35' E 121°18'2 1.4
2016-Jul-23 18:12N 31°34' E 121°20'0 0.0
2016-Jul-23 17:33N 31°34' E 121°20'0 0.1
2016-Jul-23 16:32N 31°34' E 121°20'0 0.1
2016-Jul-23 15:32N 31°34' E 121°20'0 0.0
2016-Jul-23 14:32N 31°34' E 121°20'0 0.0
2016-Jul-23 13:31N 31°34' E 121°20'0 0.0
2016-Jul-23 12:31N 31°34' E 121°20'0 0.0
2016-Jul-23 11:33N 31°34' E 121°20'0 0.0
2016-Jul-23 10:33N 31°34' E 121°20'0 0.0
2016-Jul-23 09:32N 31°34' E 121°20'1 0.6
2016-Jul-23 08:33N 31°34' E 121°20'10 9.5
2016-Jul-23 07:33N 31°27' E 121°28'9 9.0
2016-Jul-23 06:33N 31°22' E 121°37'  
2016-Jul-17 02:33N 34°60' E 139°31'1010.4
2016-Jul-17 01:33N 35°05' E 139°42'1110.8
2016-Jul-17 00:33N 35°15' E 139°46'1010.0
2016-Jul-16 23:33N 35°25' E 139°44'1211.8
2016-Jul-16 22:33N 35°31' E 139°56'6 4.7
2016-Jul-16 21:12N 35°32' E 140°03'0 0.0
2016-Jul-16 20:17N 35°32' E 140°03'0 0.0
2016-Jul-16 19:17N 35°32' E 140°03'0 0.0
2016-Jul-16 18:23N 35°32' E 140°03'0 0.0
2016-Jul-16 06:29N 35°32' E 140°03'4 1.8
2016-Jul-16 04:15N 35°31' E 139°59'0 0.1
2016-Jul-16 03:29N 35°30' E 139°59'0 0.0
2016-Jul-16 02:29N 35°30' E 139°59'0 0.0
2016-Jul-16 01:10N 35°30' E 139°59'0 0.0
2016-Jul-16 00:25N 35°30' E 139°59'0 0.1
2016-Jul-15 23:31N 35°30' E 139°59'0 0.0
2016-Jul-15 22:31N 35°30' E 139°59'0 0.0
2016-Jul-15 21:09N 35°30' E 139°59'0 0.0
2016-Jul-15 20:33N 35°30' E 139°59'0 0.0
2016-Jul-15 19:32N 35°30' E 139°59'0 0.0
2016-Jul-15 18:29N 35°30' E 139°59'0 0.0
2016-Jul-15 17:28N 35°30' E 139°59'0 0.0
2016-Jul-15 16:28N 35°30' E 139°59'0 0.0
2016-Jul-15 15:31N 35°30' E 139°59'0 0.1
2016-Jul-15 14:33N 35°30' E 139°59'0 0.0
2016-Jul-15 13:33N 35°30' E 139°59'0 0.0
2016-Jul-15 12:32N 35°30' E 139°59'0 0.0
2016-Jul-15 11:32N 35°30' E 139°59'0 0.0
2016-Jul-15 10:16N 35°31' E 139°59'0 0.0
2016-Jul-15 09:31N 35°31' E 139°59'0 0.0
2016-Jul-15 08:31N 35°31' E 139°59'0 0.0
2016-Jul-15 07:33N 35°31' E 139°59'0 0.0
2016-Jul-15 06:30N 35°31' E 139°59'0 0.0
2016-Jul-15 05:26N 35°31' E 139°59'3 4.0
2016-Jul-15 04:33N 35°29' E 139°54'9 9.1
2016-Jul-15 03:33N 35°23' E 139°46'9 9.4
2016-Jul-15 02:33N 35°14' E 139°47'1211.9
2016-Jul-15 01:33N 35°03' E 139°43'1211.8
2016-Jul-15 00:33N 34°51' E 139°40'1413.1
2016-Jul-14 23:28N 34°37' E 139°45'5 5.3
2016-Jul-14 22:33N 34°33' E 139°47'1 0.2
2016-Jul-14 18:33N 34°34' E 139°47'18 5.3
2016-Jul-14 15:07N 34°41' E 140°07'4 7.1
2016-Jul-14 14:33N 34°43' E 140°12'49 6.0
2016-Jul-14 06:24N 35°18' E 140°53'  
Track history (hours):
 
Tides and Currents Weather Stations Pressure Air Temp Water Temp Dewpoint Dewpoint Depression Visibility Wind Speed Wind Dir Waves Ship Positions

Gaschem Phoenix

Last reported at 2016-Jul-24 05:29 UTC. Time now 2016-Jul-26 06:30 UTC.
Position N 32°05' E 119°56'.

Length 100 m; draft 5.9 m.

Type: Ship. MMSI: 636090235.

Date/timePositionNaut miles runAvg speedWind from/ knotsBaromVisibWave heightAir tempDewpointWater temp
2016-Jul-24 05:29N 32°05' E 119°56'7 7.1
2016-Jul-24 04:33N 31°59' E 119°60'8 7.0
2016-Jul-24 03:26N 31°56' E 120°08'6 6.7
2016-Jul-24 02:33N 31°56' E 120°15'7 7.3
2016-Jul-24 01:32N 32°00' E 120°22'8 8.3
2016-Jul-24 00:33N 32°04' E 120°31'9 8.6
2016-Jul-23 23:33N 31°60' E 120°40'12 8.5
2016-Jul-23 22:09N 31°55' E 120°53'811.2
2016-Jul-23 21:28N 31°48' E 120°55'1111.6
2016-Jul-23 20:34N 31°44' E 121°07'1313.0
2016-Jul-23 19:33N 31°35' E 121°18'2 1.4
2016-Jul-23 18:12N 31°34' E 121°20'0 0.0
2016-Jul-23 17:33N 31°34' E 121°20'0 0.1
2016-Jul-23 16:32N 31°34' E 121°20'0 0.1
2016-Jul-23 15:32N 31°34' E 121°20'0 0.0
2016-Jul-23 14:32N 31°34' E 121°20'0 0.0
2016-Jul-23 13:31N 31°34' E 121°20'0 0.0
2016-Jul-23 12:31N 31°34' E 121°20'0 0.0
2016-Jul-23 11:33N 31°34' E 121°20'0 0.0
2016-Jul-23 10:33N 31°34' E 121°20'0 0.0
2016-Jul-23 09:32N 31°34' E 121°20'1 0.6
2016-Jul-23 08:33N 31°34' E 121°20'10 9.5
2016-Jul-23 07:33N 31°27' E 121°28'9 9.0
2016-Jul-23 06:33N 31°22' E 121°37'  
2016-Jul-17 02:33N 34°60' E 139°31'1010.4
2016-Jul-17 01:33N 35°05' E 139°42'1110.8
2016-Jul-17 00:33N 35°15' E 139°46'1010.0
2016-Jul-16 23:33N 35°25' E 139°44'1211.8
2016-Jul-16 22:33N 35°31' E 139°56'6 4.7
2016-Jul-16 21:12N 35°32' E 140°03'0 0.0
2016-Jul-16 20:17N 35°32' E 140°03'0 0.0
2016-Jul-16 19:17N 35°32' E 140°03'0 0.0
2016-Jul-16 18:23N 35°32' E 140°03'0 0.0
2016-Jul-16 06:29N 35°32' E 140°03'4 1.8
2016-Jul-16 04:15N 35°31' E 139°59'0 0.1
2016-Jul-16 03:29N 35°30' E 139°59'0 0.0
2016-Jul-16 02:29N 35°30' E 139°59'0 0.0
2016-Jul-16 01:10N 35°30' E 139°59'0 0.0
2016-Jul-16 00:25N 35°30' E 139°59'0 0.1
2016-Jul-15 23:31N 35°30' E 139°59'0 0.0
2016-Jul-15 22:31N 35°30' E 139°59'0 0.0
2016-Jul-15 21:09N 35°30' E 139°59'0 0.0
2016-Jul-15 20:33N 35°30' E 139°59'0 0.0
2016-Jul-15 19:32N 35°30' E 139°59'0 0.0
2016-Jul-15 18:29N 35°30' E 139°59'0 0.0
2016-Jul-15 17:28N 35°30' E 139°59'0 0.0
2016-Jul-15 16:28N 35°30' E 139°59'0 0.0
2016-Jul-15 15:31N 35°30' E 139°59'0 0.1
2016-Jul-15 14:33N 35°30' E 139°59'0 0.0
2016-Jul-15 13:33N 35°30' E 139°59'0 0.0
2016-Jul-15 12:32N 35°30' E 139°59'0 0.0
2016-Jul-15 11:32N 35°30' E 139°59'0 0.0
2016-Jul-15 10:16N 35°31' E 139°59'0 0.0
2016-Jul-15 09:31N 35°31' E 139°59'0 0.0
2016-Jul-15 08:31N 35°31' E 139°59'0 0.0
2016-Jul-15 07:33N 35°31' E 139°59'0 0.0
2016-Jul-15 06:30N 35°31' E 139°59'0 0.0
2016-Jul-15 05:26N 35°31' E 139°59'3 4.0
2016-Jul-15 04:33N 35°29' E 139°54'9 9.1
2016-Jul-15 03:33N 35°23' E 139°46'9 9.4
2016-Jul-15 02:33N 35°14' E 139°47'1211.9
2016-Jul-15 01:33N 35°03' E 139°43'1211.8
2016-Jul-15 00:33N 34°51' E 139°40'1413.1
2016-Jul-14 23:28N 34°37' E 139°45'5 5.3
2016-Jul-14 22:33N 34°33' E 139°47'1 0.2
2016-Jul-14 18:33N 34°34' E 139°47'18 5.3
2016-Jul-14 15:07N 34°41' E 140°07'4 7.1
2016-Jul-14 14:33N 34°43' E 140°12'49 6.0
2016-Jul-14 06:24N 35°18' E 140°53'  

Dump ship's entire track history